This is the latest recevied weather packets stored in our database for station/object DO0SOB-11. If no packets are shown the sender has not sent any weather packets the latest 1 day(s).
| Time | Temp. | Humidity | Pressure | Rain* | Wind** | Luminosity | Snow |
|---|---|---|---|---|---|---|---|
| 1778078707 | 7.22° C | 100% | 971 hPa | - | - | - | - |
| 1778077807 | 7.22° C | 100% | 971.1 hPa | - | - | - | - |
| 1778076907 | 7.22° C | 100% | 971.2 hPa | - | - | - | - |
| 1778076007 | 7.22° C | 100% | 971.2 hPa | - | - | - | - |
| 1778075107 | 6.67° C | 100% | 971.2 hPa | - | - | - | - |
| 1778066106 | 7.78° C | 100% | 970.2 hPa | - | - | - | - |
| 1778063406 | 7.78° C | 100% | 969.8 hPa | - | - | - | - |
| 1778062506 | 8.33° C | 100% | 969.5 hPa | - | - | - | - |
| 1778061606 | 8.33° C | 100% | 969.4 hPa | - | - | - | - |
| 1778051705 | 7.78° C | 100% | 969.5 hPa | - | - | - | - |
| 1778049905 | 7.78° C | 100% | 969.2 hPa | - | - | - | - |
| 1778049005 | 7.78° C | 100% | 969 hPa | - | - | - | - |
| 1778048105 | 8.33° C | 100% | 969 hPa | - | - | - | - |
| 1778047205 | 8.33° C | 100% | 968.8 hPa | - | - | - | - |
| 1778046305 | 8.33° C | 100% | 968.7 hPa | - | - | - | - |
| 1778041803 | 8.89° C | 100% | 968.5 hPa | - | - | - | - |
| 1778031002 | 10° C | 100% | 969 hPa | - | - | - | - |
| 1778030102 | 10° C | 100% | 969 hPa | - | - | - | - |
| 1778020201 | 10° C | 100% | 970 hPa | - | - | - | - |
| 1778018401 | 10.56° C | 100% | 970.2 hPa | - | - | - | - |
| 1778017501 | 10.56° C | 100% | 970.3 hPa | - | - | - | - |
| 1778016601 | 10.56° C | 100% | 970.3 hPa | - | - | - | - |
| 1778005800 | 10.56° C | 100% | 969.6 hPa | - | - | - | - |
| 1778004900 | 10.56° C | 100% | 969.5 hPa | - | - | - | - |
* Rain since midnight (hover to see other rain measurements)
** Current wind speed in m/s (hover to see current wind gust speed)